CDT,Max TemperatureF,Mean TemperatureF,Min TemperatureF,Max Dew PointF,MeanDew PointF,Min DewpointF,Max Humidity, Mean Humidity, Min Humidity, Max Sea Level PressureIn, Mean Sea Level PressureIn, Min Sea Level PressureIn, Max VisibilityMiles, Mean VisibilityMiles, Min VisibilityMiles, Max Wind SpeedMPH, Mean Wind SpeedMPH, Max Gust SpeedMPH,PrecipitationIn, CloudCover, Events, WindDirDegrees
2013-8-1,86,74,62,66,61,57,93,67,40,30.07,30.03,29.96,10,8,2,10,4,17,0.01,1,,232
2013-8-2,84,76,68,70,66,62,93,78,62,29.96,29.93,29.89,10,10,6,18,7,23,0.00,3,,193
2013-8-3,83,74,65,67,63,56,93,68,42,30.14,30.02,29.95,10,6,0,13,6,22,0.00,3,Fog,19
2013-8-4,80,69,58,60,58,55,90,68,45,30.18,30.13,30.07,10,10,10,9,4,12,0.00,0,,103
2013-8-5,79,72,64,68,65,60,90,79,68,30.07,29.94,29.84,10,10,6,16,7,21,0.00,6,,166
2013-8-6,87,77,67,72,69,64,100,80,59,29.91,29.86,29.81,10,6,0,14,6,17,0.00,3,Fog,180
2013-8-7,84,76,68,74,71,64,93,84,74,29.94,29.86,29.78,10,10,9,15,5,17,0.01,4,Rain-Thunderstorm,226
2013-8-8,83,72,61,68,65,60,93,78,62,29.99,29.95,29.93,10,10,8,10,6,13,0.01,2,,20
2013-8-9,81,73,65,66,63,60,93,72,51,30.07,30.02,29.97,10,10,7,7,3,10,0.00,0,,57
2013-8-10,83,73,62,65,58,53,90,64,37,30.17,30.13,30.09,10,10,10,16,6,22,0.00,1,,16
2013-8-11,86,73,60,64,59,54,79,61,42,30.14,30.10,30.04,10,10,10,10,4,15,0.00,0,,172
2013-8-12,83,74,64,70,65,60,81,72,62,30.05,29.98,29.93,10,10,10,14,5,17,0.00,1,Thunderstorm,270
2013-8-13,79,68,57,62,57,52,93,68,42,30.15,30.06,29.97,10,10,10,16,6,18,0.00,0,,19
2013-8-14,76,63,50,52,48,45,89,61,33,30.23,30.18,30.13,10,10,10,12,3,15,0.00,1,,65
2013-8-15,75,65,54,54,51,49,80,61,41,30.17,30.14,30.09,10,10,10,10,3,15,0.00,2,,139
2013-8-16,79,69,58,56,54,52,93,66,39,30.17,30.14,30.12,10,10,10,14,5,20,0.00,3,,68
2013-8-17,80,68,56,57,54,52,87,63,39,30.20,30.16,30.12,10,10,10,13,5,16,0.00,1,,87
2013-8-18,83,69,55,61,57,52,86,66,46,30.19,30.13,30.09,10,10,10,9,4,13,0.00,1,,93
2013-8-19,86,75,63,64,61,59,84,64,44,30.12,30.08,30.02,10,10,8,13,4,18,0.00,1,,169
2013-8-20,89,77,65,67,63,60,81,61,40,30.10,30.05,30.01,10,9,7,14,6,18,0.00,0,,174
2013-8-21,91,79,66,67,64,62,87,64,41,30.09,30.05,30.00,10,9,6,16,6,21,0.00,0,,196
2013-8-22,88,78,67,73,68,64,93,72,50,30.09,30.05,30.01,10,10,7,12,6,16,0.00,1,,148
2013-8-23,90,79,68,69,67,66,93,72,50,30.11,30.08,30.04,10,10,8,14,6,16,0.00,1,,96
2013-8-24,89,78,66,68,66,64,90,69,47,30.19,30.15,30.10,10,10,8,12,7,18,0.00,0,,137
2013-8-25,92,81,69,67,64,61,78,58,38,30.24,30.18,30.14,10,10,10,14,7,17,0.00,0,,175
2013-8-26,95,81,66,71,67,62,93,65,36,30.17,30.10,30.01,10,9,5,16,7,22,0.00,0,,206
2013-8-27,96,84,71,70,65,60,90,60,30,30.05,29.99,29.93,10,10,10,20,10,25,0.00,0,,221
2013-8-28,98,84,70,67,65,62,79,56,33,30.01,29.97,29.94,10,10,10,16,7,23,0.00,0,,243
2013-8-29,97,84,70,75,68,64,91,65,39,30.04,29.98,29.94,10,10,7,12,5,17,0.00,1,,240
2013-8-30,100,87,74,75,70,66,91,62,33,29.94,29.86,29.78,10,9,5,16,8,22,0.00,0,,214
2013-8-31,97,86,74,73,70,67,87,65,43,29.79,29.77,29.73,10,10,10,14,7,17,0.00,0,,278